* Astronomy

Members Login
Post Info TOPIC: Comet C/2010 D3 (WISE)


L

Posts: 131433
Date:
RE: Comet C/2010 D3 (WISE)
Permalink  
 


Orbital elements:
C/2010 D3 (WISE)
Epoch 2010 Sept. 1.0 TT = JDT 2455440.5
T 2010 Sept. 3.97621 TT MPC
q 4.2473887 (2000.0) P Q
z +0.0000862 Peri. 304.65184 -0.33204381 -0.08025953
+/-0.0000413 Node 255.23711 -0.14116445 -0.98092444
e 0.9996337 Incl. 76.39194 -0.93264115 +0.17704703

MPEC 2010 - M39


__________________


L

Posts: 131433
Date:
Permalink  
 

Comet C/2010 D3 (WISE) makes its closest approach to the Earth (4.070 AU) on the 8th June, 2010.

__________________


L

Posts: 131433
Date:
Permalink  
 

Orbital elements:
C/2010 D3 (WISE)
T 2010 Sept. 4.1209 TT MPC
q 4.246913 (2000.0) P Q
Peri. 304.6779 -0.3320808 -0.0800609
Node 255.2394 -0.1416197 -0.9808652
e 1.0 Incl. 76.3904 -0.9325590 +0.1774649
From 26 observations 2010 Feb. 26-May 14.

MPEC 2010 - J93


__________________


L

Posts: 131433
Date:
Permalink  
 

Orbital elements:
C/2010 D3 (WISE)
T 2010 Sept. 4.3238 TT MPC
q 4.247916 (2000.0) P Q
Peri. 304.6982 -0.3320732 -0.0800242
Node 255.2367 -0.1419618 -0.9808054
e 1.0 Incl. 76.3949 -0.9325096 +0.1778113
From 18 observations 2010 Feb. 26-Mar. 23.

MPEC 2010 - F69


__________________


L

Posts: 131433
Date:
Permalink  
 

Comet C/2010 D3 (WISE) was discovered by the WISE satellite observatory.
The preliminary orbital elements of the comet  indicate a perihelion passage on the 2nd September, 2010, at a distance of 4.23 AU from the Sun.

__________________


L

Posts: 131433
Date:
Permalink  
 

Orbital elements:
C/2010 D3 (WISE)
T 2010 Sept. 2.349 TT MPC
q 4.23610 (2000.0) P Q
Peri. 304.535 -0.332773 -0.081221
Node 255.193 -0.138853 -0.981204
e 1.0 Incl. 76.354 -0.932728 +0.175047
From 17 observations 2010 Feb. 26-Mar. 9.

MPEC 2010 - E34


__________________
Page 1 of 1  sorted by
Quick Reply

Please log in to post quick replies.



Create your own FREE Forum
Report Abuse
Powered by ActiveBoard